Weather History for Cedar Rapids, IA

Change the Weather History Date:

Friday, April 5, 2013

  Actual Average Record
Temperature  
Mean Temperature 42 °F 45 °F  
Max Temperature 55 °F 56 °F 83 °F (1929)
Min Temperature 28 °F 34 °F 11 °F (1982)
Degree Days  
Heating Degree Days 23 20  
Month to date heating degree days 143 104  
Since 1 July heating degree days 6365 6268  
Cooling Degree Days 0 0  
Month to date cooling degree days 0 0  
Year to date cooling degree days 0 0  
Moisture  
Dew Point 27 °F    
Average Humidity 60    
Maximum Humidity 92    
Minimum Humidity 28    
Precipitation  
Precipitation 0.00 in 0.08 in 1.56 in (1965)
Month to date precipitation 0.00 0.40  
Year to date precipitation 4.29 4.64  
Sea Level Pressure  
Sea Level Pressure 30.11 in    
Wind  
Wind Speed 11 mph (East)    
Max Wind Speed 18 mph    
Max Gust Speed 23 mph    
Visibility 10 miles    
Events      
T = Trace of Precipitation, MM = Missing Value Source: NWS Daily Summary

Daily Weather History Graph

Daily Weather History Graph

Search for Another Location

Airport:

Trip Planner

Search our weather history database for the weather conditions in past years. The results will help you decide how hot, cold, wet, or windy it might be!

Date:

Astronomy

Apr. 05, 2013 Rise Set
Actual Time 6:42 AM CDT 7:37 PM CDT
Civil Twilight 6:14 AM CDT 8:05 PM CDT
Nautical Twilight 5:40 AM CDT 8:39 PM CDT
Astronomical Twilight 5:05 AM CDT 9:14 PM CDT
Moon 3:54 AM CDT (4/5) 2:57 PM CDT (4/5)
Length of Visible Light 13h 51m
Length of Day
12h 54m
Waning Crescent, 23% of the Moon is Illuminated
Apr 5
Waning Crescent
Apr 10
New
Apr 18
First Quarter
Apr 25
Full
May 2
Last Quarter

Hourly Weather History & Observations

Time (CDT) Temp. Windchill Dew Point Humidity Pressure Visibility Wind Dir Wind Speed Gust Speed Precip Events Conditions
12:52 AM 36.0 °F 31.1 °F 33.1 °F 89% 30.10 in 8.0 mi NNW 5.8 mph - N/A   Clear
1:52 AM 33.1 °F 26.9 °F 30.0 °F 89% 30.12 in 8.0 mi NW 6.9 mph - N/A   Clear
2:52 AM 32.0 °F 26.4 °F 28.0 °F 85% 30.12 in 9.0 mi NW 5.8 mph - N/A   Clear
3:52 AM 30.9 °F 24.3 °F 28.0 °F 89% 30.14 in 10.0 mi NNW 6.9 mph - N/A   Clear
4:52 AM 30.0 °F 24.1 °F 27.0 °F 88% 30.15 in 10.0 mi NNW 5.8 mph - N/A   Clear
5:52 AM 28.9 °F 20.4 °F 26.1 °F 89% 30.17 in 10.0 mi NNW 9.2 mph - N/A   Mostly Cloudy
6:52 AM 28.9 °F 21.1 °F 26.1 °F 89% 30.19 in 9.0 mi NNW 8.1 mph - N/A   Clear
7:52 AM 34.0 °F 26.6 °F 28.9 °F 82% 30.21 in 10.0 mi NNE 9.2 mph - N/A   Partly Cloudy
8:52 AM 39.9 °F 32.9 °F 28.0 °F 63% 30.22 in 10.0 mi East 11.5 mph - N/A   Clear
9:52 AM 43.0 °F 36.4 °F 28.9 °F 58% 30.22 in 10.0 mi ESE 12.7 mph - N/A   Clear
10:52 AM 46.0 °F 39.9 °F 28.0 °F 50% 30.21 in 10.0 mi ESE 13.8 mph - N/A   Clear
11:52 AM 48.9 °F - 27.0 °F 43% 30.19 in 10.0 mi SE 11.5 mph - N/A   Clear
12:52 PM 51.1 °F - 25.0 °F 36% 30.18 in 10.0 mi SE 9.2 mph 18.4 mph N/A   Partly Cloudy
1:52 PM 52.0 °F - 24.1 °F 34% 30.15 in 10.0 mi ESE 10.4 mph - N/A   Scattered Clouds
2:52 PM 53.1 °F - 24.1 °F 32% 30.13 in 10.0 mi ESE 10.4 mph - N/A   Overcast
3:52 PM 53.1 °F - 23.0 °F 31% 30.11 in 10.0 mi ESE 10.4 mph - N/A   Overcast
4:52 PM 54.0 °F - 21.9 °F 29% 30.07 in 10.0 mi ESE 10.4 mph - N/A   Mostly Cloudy
5:52 PM 53.1 °F - 24.1 °F 32% 30.04 in 10.0 mi ESE 15.0 mph - N/A   Overcast
6:52 PM 51.1 °F - 26.1 °F 38% 30.04 in 10.0 mi ESE 11.5 mph - N/A   Clear
7:52 PM 48.0 °F - 26.1 °F 42% 30.02 in 10.0 mi East 9.2 mph - N/A   Clear
8:52 PM 46.9 °F - 27.0 °F 46% 30.00 in 10.0 mi ESE 13.8 mph - N/A   Clear
9:52 PM 46.0 °F 39.3 °F 27.0 °F 47% 30.00 in 10.0 mi ESE 16.1 mph - N/A   Clear
10:52 PM 45.0 °F 39.3 °F 28.0 °F 52% 29.97 in 10.0 mi ESE 11.5 mph - N/A   Clear
11:52 PM 46.0 °F 39.9 °F 28.0 °F 50% 29.95 in 10.0 mi ESE 13.8 mph - N/A   Clear